Time,TemperatureF,DewpointF,PressureIn,WindDirection,WindDirectionDegrees,WindSpeedMPH,WindSpeedGustMPH,Humidity,HourlyPrecipIn,Conditions,Clouds,dailyrainin,SoftwareType,DateUTC
2013-09-30 00:01:00,62.4,45.5,29.71,South,179,10.0,10.0,54,0.00,,,0.00,VWS V12.08,2013-09-30 05:01:00,
2013-09-30 00:06:00,62.5,45.7,29.71,SSE,155,7.0,14.0,54,0.00,,,0.00,VWS V12.08,2013-09-30 05:06:00,
2013-09-30 00:11:00,62.5,45.7,29.71,South,171,10.0,14.0,54,0.00,,,0.00,VWS V12.08,2013-09-30 05:11:00,
2013-09-30 00:16:00,62.5,45.7,29.71,WSW,245,4.0,14.0,54,0.00,,,0.00,VWS V12.08,2013-09-30 05:16:00,
2013-09-30 00:21:00,62.5,45.7,29.71,South,172,6.0,14.0,54,0.00,,,0.00,VWS V12.08,2013-09-30 05:21:00,
2013-09-30 00:26:00,62.6,45.7,29.71,South,179,9.0,14.0,54,0.00,,,0.00,VWS V12.08,2013-09-30 05:26:00,
2013-09-30 00:31:00,62.6,45.7,29.71,SSW,205,12.0,12.0,54,0.00,,,0.00,VWS V12.08,2013-09-30 05:31:00,
2013-09-30 00:36:00,62.5,45.7,29.71,South,173,4.0,15.0,54,0.00,,,0.00,VWS V12.08,2013-09-30 05:36:00,
2013-09-30 00:41:00,62.4,45.5,29.71,South,183,2.0,15.0,54,0.00,,,0.00,VWS V12.08,2013-09-30 05:41:00,
2013-09-30 00:46:00,62.2,45.4,29.71,South,191,6.0,15.0,54,0.00,,,0.00,VWS V12.08,2013-09-30 05:46:00,
2013-09-30 00:51:00,61.8,45.5,29.71,SSE,157,11.0,15.0,55,0.00,,,0.00,VWS V12.08,2013-09-30 05:51:00,
2013-09-30 00:56:00,61.4,45.6,29.71,SSE,155,8.0,15.0,56,0.00,,,0.00,VWS V12.08,2013-09-30 05:56:00,
2013-09-30 01:01:00,61.1,45.8,29.71,South,184,6.0,6.0,57,0.00,,,0.00,VWS V12.08,2013-09-30 06:01:00,
2013-09-30 01:06:00,60.9,45.6,29.71,SSE,148,4.0,12.0,57,0.00,,,0.00,VWS V12.08,2013-09-30 06:06:00,
2013-09-30 01:11:00,60.5,45.7,29.70,South,182,9.0,12.0,58,0.00,,,0.00,VWS V12.08,2013-09-30 06:11:00,
2013-09-30 01:16:00,60.3,45.9,29.70,SE,142,13.0,13.0,59,0.00,,,0.00,VWS V12.08,2013-09-30 06:16:00,
2013-09-30 01:21:00,60.2,45.8,29.70,SSE,156,5.0,13.0,59,0.00,,,0.00,VWS V12.08,2013-09-30 06:21:00,
2013-09-30 01:26:00,60.1,46.2,29.70,SSE,163,9.0,13.0,60,0.00,,,0.00,VWS V12.08,2013-09-30 06:26:00,
2013-09-30 01:31:00,60.0,46.1,29.70,South,171,9.0,9.0,60,0.00,,,0.00,VWS V12.08,2013-09-30 06:31:00,
2013-09-30 01:36:00,59.9,46.0,29.70,SSW,209,8.0,13.0,60,0.00,,,0.00,VWS V12.08,2013-09-30 06:36:00,
2013-09-30 01:41:00,59.9,46.0,29.70,SSE,167,6.0,17.0,60,0.00,,,0.00,VWS V12.08,2013-09-30 06:41:00,
2013-09-30 01:46:00,59.9,46.0,29.70,South,183,8.0,17.0,60,0.00,,,0.00,VWS V12.08,2013-09-30 06:46:00,
2013-09-30 01:51:00,59.8,46.3,29.70,South,175,5.0,17.0,61,0.00,,,0.00,VWS V12.08,2013-09-30 06:51:00,
2013-09-30 01:56:00,59.7,46.2,29.70,SSE,151,6.0,17.0,61,0.00,,,0.00,VWS V12.08,2013-09-30 06:56:00,
2013-09-30 02:01:00,59.6,46.2,29.70,SSE,156,6.0,12.0,61,0.00,,,0.00,VWS V12.08,2013-09-30 07:01:00,
2013-09-30 02:06:00,59.7,46.2,29.70,SW,217,6.0,12.0,61,0.00,,,0.00,VWS V12.08,2013-09-30 07:06:00,
2013-09-30 02:11:00,59.8,45.9,29.69,South,184,4.0,12.0,60,0.00,,,0.00,VWS V12.08,2013-09-30 07:11:00,
2013-09-30 02:16:00,60.0,46.1,29.70,SE,132,3.0,12.0,60,0.00,,,0.00,VWS V12.08,2013-09-30 07:16:00,
2013-09-30 02:21:00,60.1,46.2,29.69,SSW,199,6.0,13.0,60,0.00,,,0.00,VWS V12.08,2013-09-30 07:21:00,
2013-09-30 02:26:00,60.4,46.0,29.69,SSW,200,6.0,13.0,59,0.00,,,0.00,VWS V12.08,2013-09-30 07:26:00,
2013-09-30 02:31:00,60.6,46.2,29.69,SSW,195,4.0,4.0,59,0.00,,,0.00,VWS V12.08,2013-09-30 07:31:00,
2013-09-30 02:36:00,60.6,46.2,29.69,ESE,123,5.0,13.0,59,0.00,,,0.00,VWS V12.08,2013-09-30 07:36:00,
2013-09-30 02:41:00,60.5,45.7,29.69,SW,218,3.0,13.0,58,0.00,,,0.00,VWS V12.08,2013-09-30 07:41:00,
2013-09-30 02:46:00,60.4,46.0,29.69,South,184,7.0,13.0,59,0.00,,,0.00,VWS V12.08,2013-09-30 07:46:00,
2013-09-30 02:51:00,60.4,46.0,29.68,SW,214,2.0,13.0,59,0.00,,,0.00,VWS V12.08,2013-09-30 07:51:00,
2013-09-30 02:56:00,60.3,45.9,29.68,SSE,148,7.0,13.0,59,0.00,,,0.00,VWS V12.08,2013-09-30 07:56:00,
2013-09-30 03:01:00,60.2,45.8,29.68,SSW,200,10.0,11.0,59,0.00,,,0.00,VWS V12.08,2013-09-30 08:01:00,
2013-09-30 03:06:00,60.1,46.2,29.68,South,175,9.0,11.0,60,0.00,,,0.00,VWS V12.08,2013-09-30 08:06:00,
2013-09-30 03:12:00,59.8,45.9,29.68,SSE,167,6.0,11.0,60,0.00,,,0.00,VWS V12.08,2013-09-30 08:12:00,
2013-09-30 03:17:00,59.7,45.8,29.68,SSE,158,4.0,14.0,60,0.00,,,0.00,VWS V12.08,2013-09-30 08:17:00,
2013-09-30 03:22:00,59.5,46.1,29.68,SSW,207,7.0,14.0,61,0.00,,,0.00,VWS V12.08,2013-09-30 08:22:00,
2013-09-30 03:27:00,59.4,46.0,29.67,South,188,4.0,14.0,61,0.00,,,0.00,VWS V12.08,2013-09-30 08:27:00,
2013-09-30 03:32:00,59.4,46.0,29.67,SE,142,5.0,10.0,61,0.00,,,0.00,VWS V12.08,2013-09-30 08:32:00,
2013-09-30 03:37:00,59.3,45.9,29.67,South,175,7.0,13.0,61,0.00,,,0.00,VWS V12.08,2013-09-30 08:37:00,
2013-09-30 03:42:00,59.1,45.7,29.67,SSW,211,5.0,13.0,61,0.00,,,0.00,VWS V12.08,2013-09-30 08:42:00,
2013-09-30 03:47:00,58.9,45.9,29.67,South,176,5.0,13.0,62,0.00,,,0.00,VWS V12.08,2013-09-30 08:47:00,
2013-09-30 03:52:00,58.6,46.1,29.67,South,181,6.0,13.0,63,0.00,,,0.00,VWS V12.08,2013-09-30 08:52:00,
2013-09-30 03:57:00,58.3,45.8,29.67,SSE,156,0.0,13.0,63,0.00,,,0.00,VWS V12.08,2013-09-30 08:57:00,
2013-09-30 04:02:00,58.0,45.9,29.67,South,178,7.0,8.0,64,0.00,,,0.00,VWS V12.08,2013-09-30 09:02:00,
2013-09-30 04:07:00,57.8,46.1,29.67,SSW,195,3.0,8.0,65,0.00,,,0.00,VWS V12.08,2013-09-30 09:07:00,
2013-09-30 04:12:00,57.6,45.9,29.67,SSE,157,4.0,8.0,65,0.00,,,0.00,VWS V12.08,2013-09-30 09:12:00,
2013-09-30 04:17:00,57.4,46.2,29.67,SE,142,1.0,8.0,66,0.00,,,0.00,VWS V12.08,2013-09-30 09:17:00,
2013-09-30 04:22:00,57.1,45.9,29.66,South,184,4.0,8.0,66,0.00,,,0.00,VWS V12.08,2013-09-30 09:22:00,
2013-09-30 04:27:00,56.8,46.0,29.66,SSE,152,3.0,8.0,67,0.00,,,0.00,VWS V12.08,2013-09-30 09:27:00,
2013-09-30 04:32:00,56.6,46.2,29.66,SSE,162,7.0,9.0,68,0.00,,,0.00,VWS V12.08,2013-09-30 09:32:00,
2013-09-30 04:37:00,56.4,46.0,29.66,SSE,157,4.0,9.0,68,0.00,,,0.00,VWS V12.08,2013-09-30 09:37:00,
2013-09-30 04:42:00,56.2,46.2,29.66,South,178,3.0,9.0,69,0.00,,,0.00,VWS V12.08,2013-09-30 09:42:00,
2013-09-30 04:47:00,56.1,46.1,29.66,SSE,158,3.0,9.0,69,0.00,,,0.00,VWS V12.08,2013-09-30 09:47:00,
2013-09-30 04:52:00,55.9,46.3,29.66,SE,140,3.0,9.0,70,0.00,,,0.00,VWS V12.08,2013-09-30 09:52:00,
2013-09-30 04:57:00,55.7,46.1,29.66,South,173,3.0,9.0,70,0.00,,,0.00,VWS V12.08,2013-09-30 09:57:00,
2013-09-30 05:02:00,55.6,46.0,29.65,SSE,155,4.0,6.0,70,0.00,,,0.00,VWS V12.08,2013-09-30 10:02:00,
2013-09-30 05:07:00,55.6,46.4,29.65,South,178,7.0,10.0,71,0.00,,,0.00,VWS V12.08,2013-09-30 10:07:00,
2013-09-30 05:12:00,55.7,46.5,29.65,South,188,10.0,10.0,71,0.00,,,0.00,VWS V12.08,2013-09-30 10:12:00,
2013-09-30 05:17:00,55.7,46.5,29.64,SSE,163,10.0,11.0,71,0.00,,,0.00,VWS V12.08,2013-09-30 10:17:00,
2013-09-30 05:22:00,55.6,46.4,29.64,SSE,163,6.0,12.0,71,0.00,,,0.00,VWS V12.08,2013-09-30 10:22:00,
2013-09-30 05:27:00,55.5,46.3,29.64,SSW,196,10.0,12.0,71,0.00,,,0.00,VWS V12.08,2013-09-30 10:27:00,
2013-09-30 05:32:00,55.4,46.2,29.64,SSE,163,9.0,10.0,71,0.00,,,0.00,VWS V12.08,2013-09-30 10:32:00,
2013-09-30 05:37:00,55.4,46.5,29.64,SSE,168,10.0,13.0,72,0.00,,,0.00,VWS V12.08,2013-09-30 10:37:00,
2013-09-30 05:42:00,55.2,46.3,29.63,South,173,9.0,13.0,72,0.00,,,0.00,VWS V12.08,2013-09-30 10:42:00,
2013-09-30 05:47:00,55.1,46.2,29.64,SSW,200,4.0,13.0,72,0.00,,,0.00,VWS V12.08,2013-09-30 10:47:00,
2013-09-30 05:52:00,55.0,46.5,29.64,SSE,165,5.0,13.0,73,0.00,,,0.00,VWS V12.08,2013-09-30 10:52:00,
2013-09-30 05:57:00,54.9,46.4,29.64,SE,134,6.0,13.0,73,0.00,,,0.00,VWS V12.08,2013-09-30 10:57:00,
2013-09-30 06:02:00,55.0,46.5,29.64,SSE,155,6.0,10.0,73,0.00,,,0.00,VWS V12.08,2013-09-30 11:02:00,
2013-09-30 06:07:00,55.0,46.5,29.64,SSE,153,5.0,11.0,73,0.00,,,0.00,VWS V12.08,2013-09-30 11:07:00,
2013-09-30 06:12:00,54.9,46.4,29.64,SSW,206,3.0,11.0,73,0.00,,,0.00,VWS V12.08,2013-09-30 11:12:00,
2013-09-30 06:17:00,54.8,46.3,29.64,SSE,168,5.0,11.0,73,0.00,,,0.00,VWS V12.08,2013-09-30 11:17:00,
2013-09-30 06:22:00,54.7,46.6,29.64,SE,129,3.0,11.0,74,0.00,,,0.00,VWS V12.08,2013-09-30 11:22:00,
2013-09-30 06:27:00,54.5,46.4,29.64,SSE,168,3.0,11.0,74,0.00,,,0.00,VWS V12.08,2013-09-30 11:27:00,
2013-09-30 06:32:00,54.5,46.4,29.64,SSW,200,3.0,7.0,74,0.00,,,0.00,VWS V12.08,2013-09-30 11:32:00,
2013-09-30 06:37:00,54.5,46.8,29.64,SE,136,2.0,7.0,75,0.00,,,0.00,VWS V12.08,2013-09-30 11:37:00,
2013-09-30 06:42:00,54.4,46.7,29.64,South,186,4.0,9.0,75,0.00,,,0.00,VWS V12.08,2013-09-30 11:42:00,
2013-09-30 06:47:00,54.1,46.4,29.64,South,169,6.0,9.0,75,0.00,,,0.00,VWS V12.08,2013-09-30 11:47:00,
2013-09-30 06:52:00,53.9,46.5,29.64,SE,144,3.0,9.0,76,0.00,,,0.00,VWS V12.08,2013-09-30 11:52:00,
2013-09-30 06:57:00,53.6,46.2,29.64,South,184,7.0,9.0,76,0.00,,,0.00,VWS V12.08,2013-09-30 11:57:00,
2013-09-30 07:02:00,53.6,46.6,29.63,South,170,3.0,6.0,77,0.00,,,0.00,VWS V12.08,2013-09-30 12:02:00,
2013-09-30 07:07:00,53.6,46.6,29.64,SW,218,3.0,8.0,77,0.00,,,0.00,VWS V12.08,2013-09-30 12:07:00,
2013-09-30 07:12:00,53.6,46.6,29.64,SSE,155,7.0,8.0,77,0.00,,,0.00,VWS V12.08,2013-09-30 12:12:00,
2013-09-30 07:17:00,53.5,46.5,29.63,SSE,156,5.0,8.0,77,0.00,,,0.00,VWS V12.08,2013-09-30 12:17:00,
2013-09-30 07:22:00,53.4,46.7,29.63,SE,126,4.0,8.0,78,0.00,,,0.00,VWS V12.08,2013-09-30 12:22:00,
2013-09-30 07:27:00,53.4,46.7,29.63,SSE,163,6.0,10.0,78,0.00,,,0.00,VWS V12.08,2013-09-30 12:27:00,
2013-09-30 07:32:00,53.5,46.5,29.64,South,191,3.0,7.0,77,0.00,,,0.00,VWS V12.08,2013-09-30 12:32:00,
2013-09-30 07:37:00,53.4,46.7,29.64,SSW,213,10.0,10.0,78,0.00,,,0.00,VWS V12.08,2013-09-30 12:37:00,
2013-09-30 07:42:00,53.4,46.7,29.64,South,175,6.0,10.0,78,0.00,,,0.00,VWS V12.08,2013-09-30 12:42:00,
2013-09-30 07:47:00,53.5,46.8,29.63,SSE,163,5.0,10.0,78,0.00,,,0.00,VWS V12.08,2013-09-30 12:47:00,
2013-09-30 07:52:00,53.5,46.8,29.64,SSE,148,2.0,10.0,78,0.00,,,0.00,VWS V12.08,2013-09-30 12:52:00,
2013-09-30 07:57:00,53.4,46.7,29.64,SSW,205,2.0,10.0,78,0.00,,,0.00,VWS V12.08,2013-09-30 12:57:00,
2013-09-30 08:02:00,53.3,46.6,29.64,SSE,162,5.0,5.0,78,0.00,,,0.00,VWS V12.08,2013-09-30 13:02:00,
2013-09-30 08:07:00,53.3,47.0,29.64,SSE,155,3.0,7.0,79,0.00,,,0.00,VWS V12.08,2013-09-30 13:07:00,
2013-09-30 08:12:00,53.4,47.1,29.63,South,186,4.0,7.0,79,0.00,,,0.00,VWS V12.08,2013-09-30 13:12:00,
2013-09-30 08:17:00,53.7,47.0,29.63,South,187,3.0,7.0,78,0.00,,,0.00,VWS V12.08,2013-09-30 13:17:00,
2013-09-30 08:22:00,54.2,47.5,29.63,SSE,150,7.0,10.0,78,0.00,,,0.00,VWS V12.08,2013-09-30 13:22:00,
2013-09-30 08:27:00,54.5,47.5,29.63,South,182,3.0,10.0,77,0.00,,,0.00,VWS V12.08,2013-09-30 13:27:00,
2013-09-30 08:32:00,55.0,47.9,29.63,SSE,159,2.0,11.0,77,0.00,,,0.00,VWS V12.08,2013-09-30 13:32:00,
2013-09-30 08:37:00,55.5,48.1,29.63,South,175,9.0,12.0,76,0.00,,,0.00,VWS V12.08,2013-09-30 13:37:00,
2013-09-30 08:42:00,56.0,48.2,29.63,SSE,153,7.0,14.0,75,0.00,,,0.00,VWS V12.08,2013-09-30 13:42:00,
2013-09-30 08:47:00,56.3,48.1,29.63,SSW,192,7.0,14.0,74,0.00,,,0.00,VWS V12.08,2013-09-30 13:47:00,
2013-09-30 08:52:00,56.7,48.5,29.63,SE,140,2.0,14.0,74,0.00,,,0.00,VWS V12.08,2013-09-30 13:52:00,
2013-09-30 08:57:00,57.1,48.5,29.62,South,175,4.0,14.0,73,0.00,,,0.00,VWS V12.08,2013-09-30 13:57:00,
2013-09-30 09:02:00,57.4,48.5,29.62,South,180,6.0,12.0,72,0.00,,,0.00,VWS V12.08,2013-09-30 14:02:00,
2013-09-30 09:07:00,57.6,48.7,29.62,SSW,195,6.0,13.0,72,0.00,,,0.00,VWS V12.08,2013-09-30 14:07:00,
2013-09-30 09:12:00,57.9,48.9,29.62,SSW,198,7.0,14.0,72,0.00,,,0.00,VWS V12.08,2013-09-30 14:12:00,
2013-09-30 09:17:00,58.4,48.7,29.62,SSE,163,6.0,17.0,70,0.00,,,0.00,VWS V12.08,2013-09-30 14:17:00,
2013-09-30 09:22:00,58.8,48.7,29.62,South,173,9.0,17.0,69,0.00,,,0.00,VWS V12.08,2013-09-30 14:22:00,
2013-09-30 09:27:00,59.2,48.7,29.62,South,191,13.0,17.0,68,0.00,,,0.00,VWS V12.08,2013-09-30 14:27:00,
2013-09-30 09:32:00,59.6,49.0,29.62,SSE,157,11.0,13.0,68,0.00,,,0.00,VWS V12.08,2013-09-30 14:32:00,
2013-09-30 09:37:00,60.2,49.2,29.62,South,191,7.0,16.0,67,0.00,,,0.00,VWS V12.08,2013-09-30 14:37:00,
2013-09-30 09:42:00,60.7,49.3,29.62,SSE,165,9.0,16.0,66,0.00,,,0.00,VWS V12.08,2013-09-30 14:42:00,
2013-09-30 09:47:00,61.1,49.3,29.61,SSW,196,6.0,19.0,65,0.00,,,0.00,VWS V12.08,2013-09-30 14:47:00,
2013-09-30 09:52:00,61.4,49.1,29.61,SSE,158,6.0,19.0,64,0.00,,,0.00,VWS V12.08,2013-09-30 14:52:00,
2013-09-30 09:57:00,61.8,49.1,29.61,SSW,210,14.0,19.0,63,0.00,,,0.00,VWS V12.08,2013-09-30 14:57:00,
2013-09-30 10:03:00,62.0,49.3,29.61,SSE,167,4.0,16.0,63,0.00,,,0.00,VWS V12.08,2013-09-30 15:03:00,
2013-09-30 10:08:00,62.5,49.3,29.61,SE,144,10.0,16.0,62,0.00,,,0.00,VWS V12.08,2013-09-30 15:08:00,
2013-09-30 10:13:00,63.2,49.5,29.60,SSW,192,11.0,16.0,61,0.00,,,0.00,VWS V12.08,2013-09-30 15:13:00,
2013-09-30 10:18:00,63.3,49.6,29.60,SW,215,10.0,16.0,61,0.00,,,0.00,VWS V12.08,2013-09-30 15:18:00,
2013-09-30 10:23:00,63.4,49.3,29.60,SSW,194,7.0,19.0,60,0.00,,,0.00,VWS V12.08,2013-09-30 15:23:00,
2013-09-30 10:28:00,63.7,49.6,29.61,SSW,206,5.0,19.0,60,0.00,,,0.00,VWS V12.08,2013-09-30 15:28:00,
2013-09-30 10:33:00,64.2,50.0,29.61,SE,145,7.0,15.0,60,0.00,,,0.00,VWS V12.08,2013-09-30 15:33:00,
2013-09-30 10:38:00,64.6,49.5,29.61,South,186,6.0,18.0,58,0.00,,,0.00,VWS V12.08,2013-09-30 15:38:00,
2013-09-30 10:43:00,65.0,49.9,29.61,SSW,199,12.0,18.0,58,0.00,,,0.00,VWS V12.08,2013-09-30 15:43:00,
2013-09-30 10:48:00,65.6,50.0,29.61,SW,224,13.0,18.0,57,0.00,,,0.00,VWS V12.08,2013-09-30 15:48:00,
2013-09-30 10:53:00,65.7,49.6,29.61,SSW,198,10.0,18.0,56,0.00,,,0.00,VWS V12.08,2013-09-30 15:53:00,
2013-09-30 10:58:00,66.0,49.9,29.62,SSW,203,7.0,19.0,56,0.00,,,0.00,VWS V12.08,2013-09-30 15:58:00,
2013-09-30 11:03:00,66.2,50.1,29.61,SSW,205,11.0,11.0,56,0.00,,,0.00,VWS V12.08,2013-09-30 16:03:00,
2013-09-30 11:08:00,66.4,49.8,29.61,SW,215,10.0,21.0,55,0.00,,,0.00,VWS V12.08,2013-09-30 16:08:00,
2013-09-30 11:13:00,66.7,50.0,29.62,SW,232,11.0,21.0,55,0.00,,,0.00,VWS V12.08,2013-09-30 16:13:00,
2013-09-30 11:18:00,66.7,49.5,29.61,SW,219,5.0,21.0,54,0.00,,,0.00,VWS V12.08,2013-09-30 16:18:00,
2013-09-30 11:23:00,66.6,49.5,29.62,SW,227,9.0,21.0,54,0.00,,,0.00,VWS V12.08,2013-09-30 16:23:00,
2013-09-30 11:28:00,66.7,50.0,29.61,SW,214,12.0,21.0,55,0.00,,,0.00,VWS V12.08,2013-09-30 16:28:00,
2013-09-30 11:33:00,67.1,49.9,29.62,South,172,5.0,13.0,54,0.00,,,0.00,VWS V12.08,2013-09-30 16:33:00,
2013-09-30 11:38:00,67.7,50.0,29.62,SW,222,6.0,15.0,53,0.00,,,0.00,VWS V12.08,2013-09-30 16:38:00,
2013-09-30 11:43:00,68.1,49.8,29.62,SW,214,10.0,16.0,52,0.00,,,0.00,VWS V12.08,2013-09-30 16:43:00,
2013-09-30 11:48:00,68.4,50.1,29.61,SW,230,7.0,16.0,52,0.00,,,0.00,VWS V12.08,2013-09-30 16:48:00,
2013-09-30 11:53:00,68.8,50.0,29.61,South,188,5.0,16.0,51,0.00,,,0.00,VWS V12.08,2013-09-30 16:53:00,
2013-09-30 11:58:00,69.5,50.6,29.61,South,188,12.0,16.0,51,0.00,,,0.00,VWS V12.08,2013-09-30 16:58:00,
2013-09-30 12:03:00,69.3,49.9,29.61,SSE,150,6.0,13.0,50,0.00,,,0.00,VWS V12.08,2013-09-30 17:03:00,
2013-09-30 12:08:00,69.4,50.5,29.61,SSW,210,7.0,17.0,51,0.00,,,0.00,VWS V12.08,2013-09-30 17:08:00,
2013-09-30 12:13:00,69.5,50.1,29.60,SW,219,12.0,17.0,50,0.00,,,0.00,VWS V12.08,2013-09-30 17:13:00,
2013-09-30 12:18:00,69.7,50.2,29.60,South,174,7.0,19.0,50,0.00,,,0.00,VWS V12.08,2013-09-30 17:18:00,
2013-09-30 12:23:00,70.0,50.5,29.60,South,188,6.0,19.0,50,0.00,,,0.00,VWS V12.08,2013-09-30 17:23:00,
2013-09-30 12:28:00,70.9,50.2,29.60,SW,217,11.0,19.0,48,0.00,,,0.00,VWS V12.08,2013-09-30 17:28:00,
2013-09-30 12:33:00,71.2,50.0,29.60,SSW,205,13.0,13.0,47,0.00,,,0.00,VWS V12.08,2013-09-30 17:33:00,
2013-09-30 12:38:00,71.4,49.6,29.59,SSW,209,7.0,14.0,46,0.00,,,0.00,VWS V12.08,2013-09-30 17:38:00,
2013-09-30 12:43:00,72.0,50.1,29.59,SSW,205,8.0,14.0,46,0.00,,,0.00,VWS V12.08,2013-09-30 17:43:00,
2013-09-30 12:48:00,72.5,50.0,29.59,South,188,11.0,14.0,45,0.00,,,0.00,VWS V12.08,2013-09-30 17:48:00,
2013-09-30 12:53:00,72.5,50.0,29.59,SE,146,8.0,14.0,45,0.00,,,0.00,VWS V12.08,2013-09-30 17:53:00,
2013-09-30 12:58:00,73.0,49.8,29.59,ESE,121,11.0,16.0,44,0.00,,,0.00,VWS V12.08,2013-09-30 17:58:00,
2013-09-30 13:03:00,73.1,50.5,29.59,South,187,10.0,14.0,45,0.00,,,0.00,VWS V12.08,2013-09-30 18:03:00,
2013-09-30 13:08:00,73.4,50.2,29.59,SSE,167,14.0,18.0,44,0.00,,,0.00,VWS V12.08,2013-09-30 18:08:00,
2013-09-30 13:13:00,73.5,50.3,29.58,South,183,9.0,18.0,44,0.00,,,0.00,VWS V12.08,2013-09-30 18:13:00,
2013-09-30 13:18:00,73.8,49.3,29.58,SW,234,9.0,18.0,42,0.00,,,0.00,VWS V12.08,2013-09-30 18:18:00,
2013-09-30 13:23:00,74.4,51.1,29.58,South,176,5.0,18.0,44,0.00,,,0.00,VWS V12.08,2013-09-30 18:23:00,
2013-09-30 13:28:00,74.7,50.7,29.58,South,178,11.0,18.0,43,0.00,,,0.00,VWS V12.08,2013-09-30 18:28:00,
2013-09-30 13:33:00,74.8,50.8,29.58,SSW,207,12.0,17.0,43,0.00,,,0.00,VWS V12.08,2013-09-30 18:33:00,
2013-09-30 13:38:00,74.9,51.5,29.58,SW,236,7.0,17.0,44,0.00,,,0.00,VWS V12.08,2013-09-30 18:38:00,
2013-09-30 13:43:00,75.1,51.1,29.58,South,190,13.0,17.0,43,0.00,,,0.00,VWS V12.08,2013-09-30 18:43:00,
2013-09-30 13:48:00,75.1,51.7,29.57,SE,142,7.0,18.0,44,0.00,,,0.00,VWS V12.08,2013-09-30 18:48:00,
2013-09-30 13:53:00,75.1,51.1,29.57,South,186,9.0,18.0,43,0.00,,,0.00,VWS V12.08,2013-09-30 18:53:00,
2013-09-30 13:58:00,75.0,51.0,29.57,South,171,10.0,21.0,43,0.00,,,0.00,VWS V12.08,2013-09-30 18:58:00,
2013-09-30 14:03:00,75.7,51.0,29.57,South,183,10.0,15.0,42,0.00,,,0.00,VWS V12.08,2013-09-30 19:03:00,
2013-09-30 14:08:00,75.9,51.2,29.57,SW,227,8.0,21.0,42,0.00,,,0.00,VWS V12.08,2013-09-30 19:08:00,
2013-09-30 14:13:00,76.3,50.9,29.57,SW,226,12.0,21.0,41,0.00,,,0.00,VWS V12.08,2013-09-30 19:13:00,
2013-09-30 14:18:00,76.4,51.0,29.57,South,173,12.0,21.0,41,0.00,,,0.00,VWS V12.08,2013-09-30 19:18:00,
2013-09-30 14:23:00,76.8,51.3,29.56,SSW,192,16.0,21.0,41,0.00,,,0.00,VWS V12.08,2013-09-30 19:23:00,
2013-09-30 14:28:00,77.0,50.9,29.56,SSE,163,15.0,24.0,40,0.00,,,0.00,VWS V12.08,2013-09-30 19:28:00,
2013-09-30 14:33:00,77.0,50.9,29.56,South,187,16.0,19.0,40,0.00,,,0.00,VWS V12.08,2013-09-30 19:33:00,
2013-09-30 14:38:00,77.0,50.9,29.56,South,178,15.0,19.0,40,0.00,,,0.00,VWS V12.08,2013-09-30 19:38:00,
2013-09-30 14:43:00,77.1,50.9,29.56,SW,217,17.0,19.0,40,0.00,,,0.00,VWS V12.08,2013-09-30 19:43:00,
2013-09-30 14:48:00,77.6,50.7,29.56,SW,223,17.0,23.0,39,0.00,,,0.00,VWS V12.08,2013-09-30 19:48:00,
2013-09-30 14:53:00,77.4,50.5,29.56,SSW,199,8.0,23.0,39,0.00,,,0.00,VWS V12.08,2013-09-30 19:53:00,
2013-09-30 14:58:00,77.6,50.7,29.56,WSW,237,9.0,23.0,39,0.00,,,0.00,VWS V12.08,2013-09-30 19:58:00,
2013-09-30 15:03:00,77.8,50.9,29.56,SSW,209,9.0,22.0,39,0.00,,,0.00,VWS V12.08,2013-09-30 20:03:00,
2013-09-30 15:08:00,78.1,51.2,29.56,South,188,14.0,22.0,39,0.00,,,0.00,VWS V12.08,2013-09-30 20:08:00,
2013-09-30 15:13:00,78.3,51.3,29.56,WSW,238,11.0,22.0,39,0.00,,,0.00,VWS V12.08,2013-09-30 20:13:00,
2013-09-30 15:18:00,78.4,50.7,29.55,SSW,205,15.0,22.0,38,0.00,,,0.00,VWS V12.08,2013-09-30 20:18:00,
2013-09-30 15:23:00,78.8,51.1,29.56,WSW,253,10.0,22.0,38,0.00,,,0.00,VWS V12.08,2013-09-30 20:23:00,
2013-09-30 15:28:00,78.9,51.2,29.55,SSW,198,13.0,22.0,38,0.00,,,0.00,VWS V12.08,2013-09-30 20:28:00,
2013-09-30 15:33:00,79.3,51.5,29.55,SSW,198,10.0,20.0,38,0.00,,,0.00,VWS V12.08,2013-09-30 20:33:00,
2013-09-30 15:38:00,79.6,51.1,29.55,SSW,199,11.0,20.0,37,0.00,,,0.00,VWS V12.08,2013-09-30 20:38:00,
2013-09-30 15:43:00,80.1,52.2,29.55,SSW,196,6.0,20.0,38,0.00,,,0.00,VWS V12.08,2013-09-30 20:43:00,
2013-09-30 15:48:00,80.2,50.8,29.55,WSW,248,11.0,20.0,36,0.00,,,0.00,VWS V12.08,2013-09-30 20:48:00,
2013-09-30 15:53:00,80.4,51.0,29.55,SW,218,8.0,20.0,36,0.00,,,0.00,VWS V12.08,2013-09-30 20:53:00,
2013-09-30 15:58:00,80.7,52.0,29.54,SW,218,10.0,21.0,37,0.00,,,0.00,VWS V12.08,2013-09-30 20:58:00,
2013-09-30 16:03:00,80.8,51.4,29.54,SW,219,12.0,13.0,36,0.00,,,0.00,VWS V12.08,2013-09-30 21:03:00,
2013-09-30 16:08:00,81.0,50.8,29.54,SSW,195,10.0,20.0,35,0.00,,,0.00,VWS V12.08,2013-09-30 21:08:00,
2013-09-30 16:13:00,81.1,51.7,29.54,SW,214,9.0,20.0,36,0.00,,,0.00,VWS V12.08,2013-09-30 21:13:00,
2013-09-30 16:18:00,81.3,51.1,29.54,SW,224,11.0,20.0,35,0.00,,,0.00,VWS V12.08,2013-09-30 21:18:00,
2013-09-30 16:23:00,81.6,49.7,29.54,SSW,192,12.0,20.0,33,0.00,,,0.00,VWS V12.08,2013-09-30 21:23:00,
2013-09-30 16:28:00,81.4,51.2,29.54,SSW,210,16.0,20.0,35,0.00,,,0.00,VWS V12.08,2013-09-30 21:28:00,
2013-09-30 16:33:00,81.6,49.7,29.54,SSW,209,11.0,18.0,33,0.00,,,0.00,VWS V12.08,2013-09-30 21:33:00,
2013-09-30 16:38:00,81.7,49.8,29.54,SSE,155,6.0,21.0,33,0.00,,,0.00,VWS V12.08,2013-09-30 21:38:00,
2013-09-30 16:43:00,82.1,50.2,29.54,South,172,7.0,21.0,33,0.00,,,0.00,VWS V12.08,2013-09-30 21:43:00,
2013-09-30 16:48:00,82.2,50.3,29.54,SW,227,9.0,21.0,33,0.00,,,0.00,VWS V12.08,2013-09-30 21:48:00,
2013-09-30 16:53:00,82.5,49.7,29.54,South,175,9.0,21.0,32,0.00,,,0.00,VWS V12.08,2013-09-30 21:53:00,
2013-09-30 16:58:00,82.5,49.7,29.54,SW,217,11.0,21.0,32,0.00,,,0.00,VWS V12.08,2013-09-30 21:58:00,
2013-09-30 17:03:00,82.6,49.8,29.54,SW,223,4.0,14.0,32,0.00,,,0.00,VWS V12.08,2013-09-30 22:03:00,
2013-09-30 17:08:00,82.7,49.9,29.54,South,182,9.0,19.0,32,0.00,,,0.00,VWS V12.08,2013-09-30 22:08:00,
2013-09-30 17:13:00,82.7,49.9,29.53,South,188,7.0,19.0,32,0.00,,,0.00,VWS V12.08,2013-09-30 22:13:00,
2013-09-30 17:18:00,82.8,50.0,29.54,South,186,6.0,19.0,32,0.00,,,0.00,VWS V12.08,2013-09-30 22:18:00,
2013-09-30 17:23:00,82.8,49.1,29.53,SW,214,14.0,19.0,31,0.00,,,0.00,VWS V12.08,2013-09-30 22:23:00,
2013-09-30 17:29:00,83.0,50.1,29.53,SW,221,7.0,19.0,32,0.00,,,0.00,VWS V12.08,2013-09-30 22:29:00,
2013-09-30 17:34:00,83.0,51.0,29.53,SSE,161,10.0,14.0,33,0.00,,,0.00,VWS V12.08,2013-09-30 22:34:00,
2013-09-30 17:39:00,82.8,50.0,29.53,SW,219,10.0,18.0,32,0.00,,,0.00,VWS V12.08,2013-09-30 22:39:00,
2013-09-30 17:44:00,82.8,50.0,29.53,SSW,207,7.0,18.0,32,0.00,,,0.00,VWS V12.08,2013-09-30 22:44:00,
2013-09-30 17:49:00,82.9,49.2,29.53,SW,218,15.0,19.0,31,0.00,,,0.00,VWS V12.08,2013-09-30 22:49:00,
2013-09-30 17:54:00,82.8,49.1,29.53,SW,230,9.0,20.0,31,0.00,,,0.00,VWS V12.08,2013-09-30 22:54:00,
2013-09-30 17:59:00,82.8,49.1,29.53,SSE,165,10.0,20.0,31,0.00,,,0.00,VWS V12.08,2013-09-30 22:59:00,
2013-09-30 18:04:00,82.7,49.0,29.53,South,179,12.0,14.0,31,0.00,,,0.00,VWS V12.08,2013-09-30 23:04:00,
2013-09-30 18:09:00,82.6,48.9,29.53,SW,221,9.0,14.0,31,0.00,,,0.00,VWS V12.08,2013-09-30 23:09:00,
2013-09-30 18:14:00,82.4,49.6,29.53,SW,234,8.0,15.0,32,0.00,,,0.00,VWS V12.08,2013-09-30 23:14:00,
2013-09-30 18:19:00,82.2,49.4,29.53,South,177,8.0,15.0,32,0.00,,,0.00,VWS V12.08,2013-09-30 23:19:00,
2013-09-30 18:24:00,81.9,50.0,29.53,SSW,192,10.0,15.0,33,0.00,,,0.00,VWS V12.08,2013-09-30 23:24:00,
2013-09-30 18:29:00,81.6,49.7,29.53,SSW,196,5.0,15.0,33,0.00,,,0.00,VWS V12.08,2013-09-30 23:29:00,
2013-09-30 18:34:00,81.3,49.5,29.53,South,182,7.0,9.0,33,0.00,,,0.00,VWS V12.08,2013-09-30 23:34:00,
2013-09-30 18:39:00,80.9,49.9,29.53,South,175,7.0,10.0,34,0.00,,,0.00,VWS V12.08,2013-09-30 23:39:00,
2013-09-30 18:44:00,80.4,50.3,29.53,SSE,165,5.0,12.0,35,0.00,,,0.00,VWS V12.08,2013-09-30 23:44:00,
2013-09-30 18:49:00,79.9,49.8,29.53,SSW,205,4.0,12.0,35,0.00,,,0.00,VWS V12.08,2013-09-30 23:49:00,
2013-09-30 18:54:00,79.3,50.1,29.53,South,183,3.0,12.0,36,0.00,,,0.00,VWS V12.08,2013-09-30 23:54:00,
2013-09-30 18:59:00,78.7,50.3,29.54,SSE,165,5.0,12.0,37,0.00,,,0.00,VWS V12.08,2013-09-30 23:59:00,
2013-09-30 19:04:00,77.9,50.3,29.54,South,184,3.0,11.0,38,0.00,,,0.00,VWS V12.08,2013-10-01 00:04:00,
2013-09-30 19:09:00,77.2,50.3,29.54,SSW,194,5.0,11.0,39,0.00,,,0.00,VWS V12.08,2013-10-01 00:09:00,
2013-09-30 19:14:00,76.5,50.4,29.54,SSW,194,5.0,11.0,40,0.00,,,0.00,VWS V12.08,2013-10-01 00:14:00,
2013-09-30 19:19:00,75.9,50.5,29.54,SSW,207,3.0,11.0,41,0.00,,,0.00,VWS V12.08,2013-10-01 00:19:00,
2013-09-30 19:24:00,75.3,50.7,29.54,South,171,3.0,11.0,42,0.00,,,0.00,VWS V12.08,2013-10-01 00:24:00,
2013-09-30 19:29:00,74.7,50.7,29.54,SSW,198,6.0,11.0,43,0.00,,,0.00,VWS V12.08,2013-10-01 00:29:00,
2013-09-30 19:34:00,74.3,50.4,29.55,South,191,4.0,6.0,43,0.00,,,0.00,VWS V12.08,2013-10-01 00:34:00,
2013-09-30 19:39:00,74.0,50.7,29.55,South,191,5.0,10.0,44,0.00,,,0.00,VWS V12.08,2013-10-01 00:39:00,
2013-09-30 19:44:00,73.7,50.5,29.55,SSW,198,5.0,10.0,44,0.00,,,0.00,VWS V12.08,2013-10-01 00:44:00,
2013-09-30 19:49:00,73.3,50.7,29.55,South,184,5.0,10.0,45,0.00,,,0.00,VWS V12.08,2013-10-01 00:49:00,
2013-09-30 19:54:00,72.9,50.9,29.55,South,186,4.0,10.0,46,0.00,,,0.00,VWS V12.08,2013-10-01 00:54:00,
2013-09-30 19:59:00,72.4,51.0,29.55,SSW,197,2.0,10.0,47,0.00,,,0.00,VWS V12.08,2013-10-01 00:59:00,
2013-09-30 20:04:00,71.8,51.1,29.55,SE,133,2.0,7.0,48,0.00,,,0.00,VWS V12.08,2013-10-01 01:04:00,
2013-09-30 20:09:00,71.4,51.3,29.55,South,181,3.0,7.0,49,0.00,,,0.00,VWS V12.08,2013-10-01 01:09:00,
2013-09-30 20:14:00,71.1,51.0,29.56,SE,140,3.0,7.0,49,0.00,,,0.00,VWS V12.08,2013-10-01 01:14:00,
2013-09-30 20:19:00,70.7,50.6,29.55,SE,144,3.0,7.0,49,0.00,,,0.00,VWS V12.08,2013-10-01 01:19:00,
2013-09-30 20:24:00,70.5,51.0,29.55,SSE,165,1.0,7.0,50,0.00,,,0.00,VWS V12.08,2013-10-01 01:24:00,
2013-09-30 20:29:00,70.4,50.9,29.56,South,176,3.0,7.0,50,0.00,,,0.00,VWS V12.08,2013-10-01 01:29:00,
2013-09-30 20:34:00,70.3,50.8,29.56,SSE,155,2.0,3.0,50,0.00,,,0.00,VWS V12.08,2013-10-01 01:34:00,
2013-09-30 20:39:00,70.0,51.1,29.56,SE,141,2.0,3.0,51,0.00,,,0.00,VWS V12.08,2013-10-01 01:39:00,
2013-09-30 20:44:00,69.6,51.2,29.56,SE,136,0.0,4.0,52,0.00,,,0.00,VWS V12.08,2013-10-01 01:44:00,
2013-09-30 20:49:00,69.1,50.8,29.56,SSE,159,2.0,4.0,52,0.00,,,0.00,VWS V12.08,2013-10-01 01:49:00,
2013-09-30 20:54:00,68.8,51.0,29.56,SSE,157,1.0,5.0,53,0.00,,,0.00,VWS V12.08,2013-10-01 01:54:00,
2013-09-30 20:59:00,68.4,51.1,29.56,South,181,4.0,7.0,54,0.00,,,0.00,VWS V12.08,2013-10-01 01:59:00,
2013-09-30 21:04:00,68.2,50.9,29.56,South,176,2.0,10.0,54,0.00,,,0.00,VWS V12.08,2013-10-01 02:04:00,
2013-09-30 21:09:00,68.1,51.3,29.56,SSE,168,6.0,10.0,55,0.00,,,0.00,VWS V12.08,2013-10-01 02:09:00,
2013-09-30 21:14:00,68.0,51.2,29.56,SSW,205,3.0,10.0,55,0.00,,,0.00,VWS V12.08,2013-10-01 02:14:00,
2013-09-30 21:19:00,67.8,51.5,29.56,SSE,165,4.0,10.0,56,0.00,,,0.00,VWS V12.08,2013-10-01 02:19:00,
2013-09-30 21:24:00,67.3,51.6,29.56,ESE,120,3.0,10.0,57,0.00,,,0.00,VWS V12.08,2013-10-01 02:24:00,
2013-09-30 21:29:00,67.2,51.5,29.56,SSE,150,7.0,10.0,57,0.00,,,0.00,VWS V12.08,2013-10-01 02:29:00,
2013-09-30 21:34:00,67.1,51.4,29.57,SW,215,7.0,8.0,57,0.00,,,0.00,VWS V12.08,2013-10-01 02:34:00,
2013-09-30 21:39:00,66.9,51.7,29.56,South,191,4.0,10.0,58,0.00,,,0.00,VWS V12.08,2013-10-01 02:39:00,
2013-09-30 21:44:00,66.8,51.6,29.56,SW,215,4.0,10.0,58,0.00,,,0.00,VWS V12.08,2013-10-01 02:44:00,
2013-09-30 21:49:00,66.6,51.8,29.56,SSW,205,5.0,10.0,59,0.00,,,0.00,VWS V12.08,2013-10-01 02:49:00,
2013-09-30 21:54:00,66.4,51.7,29.56,SE,146,6.0,10.0,59,0.00,,,0.00,VWS V12.08,2013-10-01 02:54:00,
2013-09-30 21:59:00,66.3,52.0,29.56,SSE,165,6.0,10.0,60,0.00,,,0.00,VWS V12.08,2013-10-01 02:59:00,
2013-09-30 22:04:00,66.2,51.9,29.56,South,178,3.0,7.0,60,0.00,,,0.00,VWS V12.08,2013-10-01 03:04:00,
2013-09-30 22:09:00,66.0,51.7,29.56,SSE,151,6.0,11.0,60,0.00,,,0.00,VWS V12.08,2013-10-01 03:09:00,
2013-09-30 22:14:00,66.0,51.7,29.56,South,181,7.0,11.0,60,0.00,,,0.00,VWS V12.08,2013-10-01 03:14:00,
2013-09-30 22:19:00,66.0,52.2,29.56,SSW,200,7.0,11.0,61,0.00,,,0.00,VWS V12.08,2013-10-01 03:19:00,
2013-09-30 22:24:00,66.0,52.2,29.56,SSW,205,3.0,11.0,61,0.00,,,0.00,VWS V12.08,2013-10-01 03:24:00,
2013-09-30 22:29:00,66.0,52.2,29.56,SSW,192,6.0,11.0,61,0.00,,,0.00,VWS V12.08,2013-10-01 03:29:00,
2013-09-30 22:34:00,66.1,52.3,29.56,South,174,7.0,12.0,61,0.00,,,0.00,VWS V12.08,2013-10-01 03:34:00,
2013-09-30 22:39:00,66.2,52.4,29.56,South,182,4.0,13.0,61,0.00,,,0.00,VWS V12.08,2013-10-01 03:39:00,
2013-09-30 22:44:00,66.2,52.4,29.56,South,186,2.0,13.0,61,0.00,,,0.00,VWS V12.08,2013-10-01 03:44:00,
2013-09-30 22:49:00,66.2,52.4,29.56,SSE,159,4.0,13.0,61,0.00,,,0.00,VWS V12.08,2013-10-01 03:49:00,
2013-09-30 22:54:00,66.2,52.4,29.56,SSE,163,7.0,13.0,61,0.00,,,0.00,VWS V12.08,2013-10-01 03:54:00,
2013-09-30 22:59:00,66.7,52.4,29.56,South,171,12.0,15.0,60,0.00,,,0.00,VWS V12.08,2013-10-01 03:59:00,
2013-09-30 23:01:00,67.0,52.7,29.56,SSE,157,10.0,15.0,60,0.00,,,0.00,VWS V12.08,2013-10-01 04:01:00,
2013-09-30 23:06:00,67.8,52.5,29.56,SW,214,10.0,15.0,58,0.00,,,0.00,VWS V12.08,2013-10-01 04:06:00,
2013-09-30 23:11:00,68.3,52.5,29.56,South,191,9.0,18.0,57,0.00,,,0.00,VWS V12.08,2013-10-01 04:11:00,
2013-09-30 23:16:00,68.6,52.8,29.56,SSW,196,16.0,18.0,57,0.00,,,0.00,VWS V12.08,2013-10-01 04:16:00,
2013-09-30 23:21:00,68.6,52.8,29.56,South,182,9.0,18.0,57,0.00,,,0.00,VWS V12.08,2013-10-01 04:21:00,
2013-09-30 23:26:00,68.6,52.8,29.57,South,187,9.0,18.0,57,0.00,,,0.00,VWS V12.08,2013-10-01 04:26:00,
2013-09-30 23:31:00,68.6,52.8,29.56,SSE,168,6.0,18.0,57,0.00,,,0.00,VWS V12.08,2013-10-01 04:31:00,
2013-09-30 23:36:00,68.4,52.6,29.56,SSW,195,9.0,16.0,57,0.00,,,0.00,VWS V12.08,2013-10-01 04:36:00,
2013-09-30 23:41:00,68.1,52.8,29.56,SSW,194,9.0,16.0,58,0.00,,,0.00,VWS V12.08,2013-10-01 04:41:00,
2013-09-30 23:46:00,67.9,53.1,29.56,SW,217,10.0,16.0,59,0.00,,,0.00,VWS V12.08,2013-10-01 04:46:00,
2013-09-30 23:51:00,67.7,52.9,29.56,SSW,192,7.0,16.0,59,0.00,,,0.00,VWS V12.08,2013-10-01 04:51:00,
2013-09-30 23:56:00,67.5,53.1,29.56,South,186,15.0,16.0,60,0.00,,,0.00,VWS V12.08,2013-10-01 04:56:00,